Weather History for Montgomery, AL

Change the Weather History Date:

Wednesday, January 30, 2013

  Actual Average Record
Temperature  
Mean Temperature 61 °F 48 °F  
Max Temperature 78 °F 59 °F 81 °F (1950)
Min Temperature 43 °F 36 °F 5 °F (1966)
Degree Days  
Heating Degree Days 4 18  
Month to date heating degree days 344 560  
Since 1 July heating degree days 1071 1448  
Growing Degree Days 10 (Base 50)    
Moisture  
Dew Point 57 °F    
Average Humidity 73    
Maximum Humidity 93    
Minimum Humidity 53    
Precipitation  
Precipitation 1.38 in 0.18 in 1.91 in (1878)
Month to date precipitation 3.41 4.48  
Year to date precipitation 3.41 4.48  
Snow  
Snow 0.00 in 0.00 in - ()
Month to date snowfall 0.0 0.0  
Since 1 July snowfall 0.0 0.1  
Snow Depth 0.00 in    
Sea Level Pressure  
Sea Level Pressure 29.76 in    
Wind  
Wind Speed 14 mph (SSW)    
Max Wind Speed 31 mph    
Max Gust Speed 43 mph    
Visibility 8 miles    
Events Rain , Thunderstorm    
T = Trace of Precipitation, MM = Missing Value Source: NWS Daily Summary

Daily Weather History Graph

Daily Weather History Graph

Search for Another Location

Airport:

Trip Planner

Search our weather history database for the weather conditions in past years. The results will help you decide how hot, cold, wet, or windy it might be!

Date:

Astronomy

Jan. 30, 2013 Rise Set
Actual Time 6:40 AM CST 5:17 PM CST
Civil Twilight 6:15 AM CST 5:43 PM CST
Nautical Twilight 5:45 AM CST 6:12 PM CST
Astronomical Twilight 5:16 AM CST 6:41 PM CST
Moon 8:58 PM CST (1/30) 8:23 AM CST (1/30)
Length of Visible Light 11h 28m
Length of Day
10h 36m
Waning Gibbous, 87% of the Moon is Illuminated
Jan 30
Waning Gibbous
Feb 3
Last Quarter
Feb 10
New
Feb 17
First Quarter
Feb 25
Full

Hourly Weather History & Observations

Time (CST) Temp. Windchill Dew Point Humidity Pressure Visibility Wind Dir Wind Speed Gust Speed Precip Events Conditions
12:53 AM 70.0 °F - 66.0 °F 87% 29.86 in 9.0 mi SSE 11.5 mph 23.0 mph 0.01 in   Overcast
1:25 AM 69.8 °F - 66.2 °F 88% 29.86 in 10.0 mi South 9.2 mph - 0.00 in   Overcast
1:53 AM 70.0 °F - 66.9 °F 90% 29.84 in 4.0 mi South 8.1 mph - 0.03 in Rain Light Rain
2:09 AM 69.8 °F - 66.2 °F 88% 29.85 in 6.0 mi South 4.6 mph - 0.06 in Rain Light Rain
2:20 AM 69.8 °F - 66.2 °F 88% 29.84 in 10.0 mi South 12.7 mph - 0.06 in   Overcast
2:53 AM 71.1 °F - 66.9 °F 87% 29.82 in 10.0 mi South 12.7 mph - 0.06 in   Overcast
3:53 AM 71.1 °F - 66.9 °F 87% 29.79 in 10.0 mi South 10.4 mph - 0.00 in   Overcast
4:23 AM 71.6 °F - 66.2 °F 83% 29.78 in 9.0 mi South 12.7 mph 18.4 mph 0.02 in   Overcast
4:39 AM 71.6 °F - 66.2 °F 83% 29.77 in 10.0 mi South 10.4 mph 19.6 mph 0.02 in   Overcast
4:53 AM 71.1 °F - 66.9 °F 87% 29.76 in 10.0 mi South 12.7 mph 21.9 mph 0.02 in   Mostly Cloudy
5:53 AM 72.0 °F - 66.9 °F 84% 29.75 in 10.0 mi South 13.8 mph 21.9 mph N/A   Overcast
6:07 AM 71.6 °F - 66.2 °F 83% 29.76 in 10.0 mi South 13.8 mph - N/A   Overcast
6:46 AM 71.6 °F - 66.2 °F 83% 29.74 in 10.0 mi South 16.1 mph 25.3 mph N/A   Mostly Cloudy
6:53 AM 72.0 °F - 66.9 °F 84% 29.73 in 10.0 mi South 16.1 mph - N/A   Mostly Cloudy
7:53 AM 73.0 °F - 66.9 °F 81% 29.70 in 10.0 mi South 21.9 mph 28.8 mph N/A   Overcast
8:53 AM 75.9 °F - 66.0 °F 71% 29.69 in 10.0 mi South 20.7 mph 38.0 mph N/A   Overcast
9:45 AM 77.0 °F - 66.2 °F 69% 29.69 in 10.0 mi South 21.9 mph 34.5 mph 0.00 in Thunderstorm Mostly Cloudy
9:53 AM 75.9 °F - 66.0 °F 71% 29.68 in 10.0 mi South 18.4 mph 35.7 mph 0.00 in Thunderstorm Overcast
10:07 AM 73.4 °F - 66.2 °F 78% 29.67 in 2.5 mi South 17.3 mph 27.6 mph 0.02 in Rain Rain
10:11 AM 73.4 °F - 66.2 °F 78% 29.64 in 2.0 mi Variable 4.6 mph 26.5 mph 0.05 in Rain , Thunderstorm Light Rain
10:20 AM 71.6 °F - 68.0 °F 88% 29.66 in 10.0 mi South 13.8 mph 25.3 mph 0.08 in Rain , Thunderstorm Light Rain
10:45 AM 73.4 °F - 68.0 °F 83% 29.66 in 2.5 mi South 23.0 mph 35.7 mph 0.10 in Rain , Thunderstorm Light Rain
10:53 AM 73.0 °F - 68.0 °F 84% 29.66 in 2.5 mi South 18.4 mph 32.2 mph 0.15 in Rain , Thunderstorm Light Rain
10:57 AM 73.4 °F - 68.0 °F 83% 29.65 in 3.0 mi South 17.3 mph 26.5 mph 0.02 in Rain , Thunderstorm Rain
11:53 AM 73.9 °F - 66.9 °F 79% 29.62 in 5.0 mi SW 13.8 mph 27.6 mph 0.04 in Thunderstorm Haze
12:03 PM 66.2 °F - 62.6 °F 88% 29.67 in 3.0 mi West 23.0 mph 29.9 mph N/A Rain , Thunderstorm Rain
12:23 PM 62.6 °F - 60.8 °F 94% 29.66 in 1.0 mi WNW 13.8 mph 26.5 mph 0.23 in Rain , Thunderstorm Heavy Rain
12:53 PM 60.1 °F - 57.0 °F 90% 29.67 in 3.0 mi West 13.8 mph - 0.54 in Rain Rain
12:56 PM 60.8 °F - 57.2 °F 88% 29.68 in 3.0 mi West 11.5 mph - 0.00 in Rain Light Rain
1:53 PM 54.0 °F - 51.1 °F 90% 29.69 in 4.0 mi West 18.4 mph 24.2 mph 0.31 in Rain Rain
2:36 PM 53.6 °F - 50.0 °F 88% 29.72 in 7.0 mi West 9.2 mph - 0.04 in Rain Light Rain
2:53 PM 53.1 °F - 50.0 °F 89% 29.71 in 7.0 mi WSW 4.6 mph - 0.06 in Rain Light Rain
3:33 PM 53.6 °F - 48.2 °F 82% 29.71 in 2.0 mi WSW 5.8 mph - 0.03 in Rain Light Rain
3:53 PM 52.0 °F - 48.9 °F 89% 29.74 in 4.0 mi SW 5.8 mph - 0.11 in Rain Light Rain
4:00 PM 51.8 °F - 48.2 °F 88% 29.74 in 4.0 mi SW 6.9 mph - 0.01 in Rain Rain
4:53 PM 53.1 °F - 48.9 °F 86% 29.73 in 10.0 mi South 5.8 mph - 0.04 in   Overcast
5:53 PM 53.1 °F - 48.9 °F 86% 29.76 in 8.0 mi SW 8.1 mph - 0.01 in Rain Light Rain
6:09 PM 53.6 °F - 48.2 °F 82% 29.77 in 10.0 mi WSW 9.2 mph - 0.01 in Rain Light Rain
6:20 PM 53.6 °F - 48.2 °F 82% 29.79 in 10.0 mi SW 11.5 mph 18.4 mph 0.01 in Rain Light Rain
6:53 PM 53.1 °F - 48.9 °F 86% 29.80 in 10.0 mi WSW 13.8 mph 23.0 mph 0.01 in Rain Light Rain
7:53 PM 51.1 °F - 41.0 °F 68% 29.85 in 10.0 mi West 16.1 mph 23.0 mph 0.00 in   Scattered Clouds
8:53 PM 48.9 °F - 36.0 °F 61% 29.90 in 10.0 mi West 17.3 mph 25.3 mph N/A   Clear
9:53 PM 46.0 °F 37.8 °F 32.0 °F 58% 29.97 in 10.0 mi West 23.0 mph 39.1 mph N/A   Mostly Cloudy
10:53 PM 45.0 °F 36.9 °F 28.9 °F 53% 30.02 in 10.0 mi West 20.7 mph 32.2 mph N/A   Clear
11:53 PM 43.0 °F 35.4 °F 28.9 °F 58% 30.04 in 10.0 mi WNW 16.1 mph 26.5 mph N/A   Clear